Content
SEND FEEDBACK

Daily
Averages
Monthly
Summary
United States of America

CHESTERFIELD, MISSOURI


Home > North America > United States > Missouri
Elevation: 170 meters     Latitude: 38 41N     Longitude: 090 31W

WEATHER
 
SELECT A DAY
Number of Records: 203,371;   Date Range: 1/1/95 - 7/23/14
 
SHARE

PRINT THIS DATA

[ ← Previous Day ]
WEATHER ALMANAC - 28 MARCH, 2013
[ Next Day → ]
[ °F ]   °C
Weather ElementAverageHighLow
Temperature8 °C13.3 °C (3:51 pm)2.8 °C (2:51 am)
Dewpoint-0.6 °C2.8 °C (6:51 pm)-4.4 °C (7:51 am)
Humidity55.4 %65 % (2:51 am)42 % (4:51 pm)
Barometer1026.8 hPa1029.1 hPa (9:51 am)1024.7 hPa (4:51 pm)
Wind Speed15.6 km/h20.4 km/h (9:51 am)
Wind Gust27.8 km/h (2:51 pm)
Weather ElementAverage
Visibility16.1 km
Wind DirectionESE (108.6 °)

Weather ElementTotal
Precipitation---
Heating Degree Days10.3 (Base 18.3)
Averaged from 22 records on 28 March, 2013
WEATHER CONDITIONS BREAKOUT
WIND DIRECTION BREAKOUT
WEATHER BY HOUR - 28 MARCH, 2013
[ °F ]   °C
Local TimeTemperatureDewpointHumidityBarometerVisibilityWind DirectionWind SpeedGust SpeedPrecipitationEventsConditions
1:51 AM3.3 °C-3.3 °C62 %1027.8 hPa16.1 kmEast (100°)11.1 km/h0 mmOvercast
2:51 AM2.8 °C-3.3 °C65 %1027.8 hPa16.1 kmEast (90°)9.3 km/hMostly Cloudy
3:51 AM2.8 °C-3.3 °C65 %1027.8 hPa16.1 kmEast (80°)11.1 km/hOvercast
4:51 AM2.8 °C-3.9 °C62 %1027.8 hPa16.1 kmEast (100°)11.1 km/hOvercast
5:51 AM2.8 °C-3.9 °C62 %1028.1 hPa16.1 kmEast (100°)14.8 km/hOvercast
6:51 AM2.8 °C-3.9 °C62 %1028.4 hPa16.1 kmESE (110°)14.8 km/hMostly Cloudy
7:51 AM3.3 °C-4.4 °C57 %1028.8 hPa16.1 kmESE (110°)14.8 km/hMostly Cloudy
8:51 AM5 °C-3.9 °C53 %1028.8 hPa16.1 kmESE (110°)16.7 km/hScattered Clouds
9:51 AM6.1 °C-3.3 °C51 %1029.1 hPa16.1 kmESE (120°)20.4 km/hMostly Cloudy
11:51 AM8.9 °C-1.1 °C50 %1028.4 hPa16.1 kmESE (110°)20.4 km/hMostly Cloudy
12:51 PM10 °C-1.1 °C46 %1027.8 hPa16.1 kmESE (120°)16.7 km/hScattered Clouds
1:51 PM12.2 °C0.6 °C45 %1027.1 hPa16.1 kmESE (120°)18.5 km/hMostly Cloudy
2:51 PM12.8 °C0.6 °C43 %1026.1 hPa16.1 kmESE (110°)13 km/h27.8 km/hMostly Cloudy
3:51 PM13.3 °C1.1 °C44 %1025.4 hPa16.1 kmSE (140°)14.8 km/hMostly Cloudy
4:51 PM13.3 °C0.6 °C42 %1024.7 hPa16.1 kmSE (130°)18.5 km/hMostly Cloudy
5:51 PM12.8 °C1.7 °C47 %1024.7 hPa16.1 kmESE (110°)14.8 km/hMostly Cloudy
6:51 PM11.7 °C2.8 °C55 %1024.7 hPa16.1 kmEast (90°)20.4 km/hMostly Cloudy
7:51 PM11.1 °C2.8 °C57 %1025.1 hPa16.1 kmEast (90°)16.7 km/hMostly Cloudy
8:51 PM10 °C2.8 °C61 %1025.1 hPa16.1 kmEast (100°)18.5 km/h0 mmMostly Cloudy
9:51 PM10 °C2.8 °C61 %1025.1 hPa16.1 kmESE (110°)16.7 km/hMostly Cloudy
10:51 PM9.4 °C2.8 °C64 %1025.1 hPa16.1 kmESE (120°)16.7 km/hMostly Cloudy
11:51 PM9.4 °C2.8 °C64 %1024.7 hPa16.1 kmESE (120°)13 km/hOvercast
Hourly data recorded from KSTL, located 0 kilometers away from Chesterfield, Missouri







STORIES FROM OUR PARTNERS